Location: Ar Ranvel
(48.3000°N, 4.8833°W)
Time: 09:52:56
(UTC+00:00)

Meteor 1-16 Rocket - Pass Details

Date: 16 June 2021
Orbit: 790 x 908 km, 81.2° (Epoch: 26 July)

Event Time Altitude Azimuth Distance (km) Brightness Sun altitude
Rises 21:48:45 0° 347° (NNW) 3,405 8.8 -10.7°
Reaches altitude 10° 21:51:12 10° 346° (NNW) 2,449 7.9 -10.9°
Maximum altitude 21:56:43 77° 262° (W) 840 4.3 -11.4°
Enters shadow 22:01:42 12° 177° (S) 2,231 5.9 -11.9°
